EWG33G LSGG-LKPR

Flight info

Callsign EWG33G
Flight time 1h 10m
Altitude 36000
Route SOSAL1N SOSAL N871 KORED DCT BERSU DCT DITON DCT DEGES DCT GAMSA/N0440F370 DCT KONIN DCT MEBEK DCT NENUM Z39 DOLUP DCT APRAQ APRAQ2R
Aircraft A320/M-SDE3FGHIRWY/LB1

Departure

Time 2026-05-07 20:04
Airport Geneva International Airport (LSGG)

Arrival

Time 2026-05-07 21:14
Airport Václav Havel Airport Prague (LKPR)
Time Latitude Longitude Altitude Speed Heading
2026-05-07 19:09 46.23033 6.10572 1392 ft 0 kts 135°
2026-05-07 19:15 46.23033 6.10573 1392 ft 0 kts 135°
2026-05-07 19:52 46.23041 6.10560 1403 ft 4 kts 140°
2026-05-07 19:52 46.23063 6.10540 1401 ft 4 kts 167°
2026-05-07 19:52 46.23085 6.10542 1387 ft 3 kts 223°
2026-05-07 19:53 46.23088 6.10545 1386 ft 0 kts 227°
2026-05-07 19:57 46.23078 6.10529 1366 ft 3 kts 227°
2026-05-07 19:57 46.23062 6.10505 1394 ft 3 kts 224°
2026-05-07 19:57 46.23042 6.10479 1388 ft 5 kts 224°
2026-05-07 19:57 46.23008 6.10426 1389 ft 7 kts 226°
2026-05-07 19:58 46.22977 6.10381 1388 ft 5 kts 225°
2026-05-07 19:58 46.22955 6.10348 1389 ft 4 kts 235°
2026-05-07 19:58 46.22964 6.10292 1390 ft 8 kts 313°
2026-05-07 19:58 46.23004 6.10235 1387 ft 7 kts 315°
2026-05-07 19:59 46.23033 6.10193 1389 ft 5 kts 315°
2026-05-07 19:59 46.23054 6.10144 1387 ft 5 kts 277°
2026-05-07 19:59 46.23038 6.10102 1391 ft 5 kts 228°
2026-05-07 19:59 46.22997 6.10038 1389 ft 13 kts 226°
2026-05-07 20:00 46.22929 6.09939 1399 ft 13 kts 225°
2026-05-07 20:00 46.22876 6.09861 1399 ft 9 kts 225°
2026-05-07 20:00 46.22834 6.09801 1396 ft 8 kts 225°
2026-05-07 20:00 46.22801 6.09753 1394 ft 6 kts 226°
2026-05-07 20:01 46.22783 6.09726 1398 ft 2 kts 225°
2026-05-07 20:01 46.22758 6.09690 1402 ft 11 kts 225°
2026-05-07 20:01 46.22679 6.09574 1404 ft 18 kts 224°
2026-05-07 20:01 46.22593 6.09446 1407 ft 14 kts 228°
2026-05-07 20:02 46.22565 6.09376 1404 ft 7 kts 248°
2026-05-07 20:02 46.22552 6.09315 1402 ft 6 kts 259°
2026-05-07 20:02 46.22551 6.09248 1405 ft 7 kts 275°
2026-05-07 20:02 46.22561 6.09180 1404 ft 6 kts 300°
2026-05-07 20:03 46.22585 6.09154 1405 ft 3 kts 335°
2026-05-07 20:03 46.22618 6.09159 1406 ft 6 kts 27°
2026-05-07 20:03 46.22640 6.09188 1407 ft 3 kts 43°
2026-05-07 20:03 46.22648 6.09200 1407 ft 2 kts 45°
2026-05-07 20:04 46.22740 6.09337 1406 ft 52 kts 45°
2026-05-07 20:04 46.23173 6.09967 1401 ft 121 kts 45°
2026-05-07 20:04 46.23888 6.11016 1459 ft 163 kts 46°
2026-05-07 20:04 46.24430 6.11832 2065 ft 154 kts 46°
2026-05-07 20:05 46.25179 6.12960 2875 ft 152 kts 45°
2026-05-07 20:05 46.25925 6.14057 3549 ft 158 kts 46°
2026-05-07 20:05 46.26749 6.15235 3950 ft 174 kts 45°
2026-05-07 20:05 46.27656 6.16472 4447 ft 184 kts 44°
2026-05-07 20:06 46.28618 6.17808 4850 ft 202 kts 47°
2026-05-07 20:06 46.29661 6.19350 5149 ft 227 kts 47°
2026-05-07 20:06 46.30808 6.21091 5607 ft 252 kts 47°
2026-05-07 20:06 46.32070 6.23004 6197 ft 271 kts 47°
2026-05-07 20:07 46.33416 6.25028 7011 ft 280 kts 46°
2026-05-07 20:07 46.34791 6.27074 7891 ft 286 kts 46°
2026-05-07 20:07 46.36134 6.29251 8764 ft 293 kts 55°
2026-05-07 20:07 46.37130 6.31843 9626 ft 298 kts 70°
2026-05-07 20:08 46.37761 6.34728 10338 ft 309 kts 76°
2026-05-07 20:08 46.38382 6.37836 10679 ft 333 kts 75°
2026-05-07 20:08 46.39040 6.41131 11246 ft 346 kts 75°
2026-05-07 20:08 46.39727 6.44560 12027 ft 352 kts 74°
2026-05-07 20:09 46.40431 6.48070 12859 ft 356 kts 74°
2026-05-07 20:09 46.41119 6.51500 13659 ft 361 kts 74°
2026-05-07 20:09 46.41819 6.55005 14374 ft 365 kts 74°
2026-05-07 20:10 46.43237 6.62129 15753 ft 374 kts 73°
2026-05-07 20:10 46.44025 6.65767 16433 ft 378 kts 68°
2026-05-07 20:10 46.45229 6.69223 17117 ft 381 kts 56°
2026-05-07 20:10 46.46822 6.72304 17805 ft 384 kts 49°
2026-05-07 20:11 46.48520 6.75331 18468 ft 388 kts 49°
2026-05-07 20:11 46.50230 6.78393 19071 ft 391 kts 49°
2026-05-07 20:11 46.51948 6.81478 19672 ft 395 kts 49°
2026-05-07 20:11 46.53679 6.84595 20272 ft 398 kts 49°
2026-05-07 20:12 46.55421 6.87740 20867 ft 401 kts 49°
2026-05-07 20:12 46.57181 6.90918 21426 ft 405 kts 49°
2026-05-07 20:12 46.58957 6.94113 21985 ft 408 kts 49°
2026-05-07 20:12 46.60755 6.97342 22561 ft 412 kts 49°
2026-05-07 20:13 46.62560 7.00582 23104 ft 415 kts 49°
2026-05-07 20:13 46.64384 7.03865 23623 ft 418 kts 49°
2026-05-07 20:13 46.66216 7.07171 24068 ft 422 kts 49°
2026-05-07 20:13 46.68065 7.10510 24484 ft 425 kts 49°
2026-05-07 20:14 46.69952 7.13918 24909 ft 428 kts 49°
2026-05-07 20:14 46.71826 7.17306 25327 ft 432 kts 49°
2026-05-07 20:14 46.73686 7.20682 25732 ft 435 kts 50°
2026-05-07 20:14 46.75619 7.24192 26171 ft 438 kts 49°
2026-05-07 20:15 46.77528 7.27663 26585 ft 441 kts 49°
2026-05-07 20:15 46.79458 7.31177 26979 ft 445 kts 49°
2026-05-07 20:15 46.81397 7.34718 27369 ft 448 kts 49°
2026-05-07 20:15 46.83347 7.38278 27738 ft 451 kts 49°
2026-05-07 20:16 46.85346 7.41927 28117 ft 455 kts 49°
2026-05-07 20:16 46.87353 7.45595 28501 ft 458 kts 49°
2026-05-07 20:16 46.89349 7.49253 28872 ft 461 kts 49°
2026-05-07 20:16 46.91360 7.52958 29236 ft 465 kts 50°
2026-05-07 20:17 46.93387 7.56701 29635 ft 468 kts 49°
2026-05-07 20:17 46.95415 7.60450 30032 ft 470 kts 49°
2026-05-07 20:17 46.97446 7.64205 30338 ft 472 kts 49°
2026-05-07 20:17 46.99496 7.67989 30632 ft 475 kts 49°
2026-05-07 20:18 47.01559 7.71796 30912 ft 478 kts 49°
2026-05-07 20:18 47.03626 7.75618 31179 ft 480 kts 49°
2026-05-07 20:18 47.05705 7.79471 31465 ft 482 kts 49°
2026-05-07 20:18 47.07813 7.83392 31777 ft 484 kts 49°
2026-05-07 20:19 47.09894 7.87279 32164 ft 483 kts 49°
2026-05-07 20:19 47.11990 7.91202 32569 ft 482 kts 49°
2026-05-07 20:19 47.13991 7.95148 33000 ft 483 kts 54°
2026-05-07 20:19 47.15786 7.99319 33376 ft 483 kts 56°
2026-05-07 20:20 47.17571 8.03498 33765 ft 483 kts 56°
2026-05-07 20:20 47.18776 8.06322 33979 ft 483 kts 56°
2026-05-07 20:20 47.21160 8.11923 34420 ft 483 kts 56°
2026-05-07 20:20 47.22953 8.16144 34751 ft 482 kts 56°
2026-05-07 20:21 47.24138 8.18936 34978 ft 482 kts 56°
2026-05-07 20:21 47.25909 8.23119 35299 ft 481 kts 56°
2026-05-07 20:21 47.27711 8.27378 35614 ft 481 kts 56°
2026-05-07 20:21 47.29393 8.31689 35908 ft 483 kts 64°
2026-05-07 20:22 47.30614 8.36514 36024 ft 483 kts 75°
2026-05-07 20:22 47.31906 8.46174 36054 ft 480 kts 79°
2026-05-07 20:23 47.33168 8.55985 36058 ft 480 kts 79°
2026-05-07 20:23 47.34437 8.65839 36056 ft 480 kts 79°
2026-05-07 20:24 47.35692 8.75655 36053 ft 480 kts 79°
2026-05-07 20:24 47.36943 8.85534 36050 ft 480 kts 79°
2026-05-07 20:25 47.38168 8.95282 36047 ft 480 kts 79°
2026-05-07 20:25 47.39413 9.05276 36047 ft 480 kts 79°
2026-05-07 20:26 47.40611 9.14938 36046 ft 481 kts 79°
2026-05-07 20:26 47.41240 9.23071 36044 ft 480 kts 91°
2026-05-07 20:27 47.41153 9.33067 36047 ft 480 kts 91°
2026-05-07 20:27 47.41065 9.42918 36056 ft 480 kts 91°
2026-05-07 20:28 47.40977 9.52787 36075 ft 480 kts 91°
2026-05-07 20:28 47.41053 9.62695 36074 ft 480 kts 83°
2026-05-07 20:29 47.42737 9.72199 36067 ft 478 kts 66°
2026-05-07 20:29 47.45214 9.81319 36067 ft 479 kts 67°
2026-05-07 20:30 47.47662 9.90466 36071 ft 479 kts 67°
2026-05-07 20:30 47.50108 9.99628 36076 ft 479 kts 67°
2026-05-07 20:31 47.52540 10.08810 36078 ft 479 kts 67°
2026-05-07 20:31 47.54990 10.18052 36069 ft 480 kts 67°
2026-05-07 20:32 47.57423 10.27245 36089 ft 480 kts 67°
2026-05-07 20:32 47.59838 10.36451 36092 ft 479 kts 68°
2026-05-07 20:33 47.62243 10.45668 36091 ft 479 kts 68°
2026-05-07 20:33 47.64637 10.54871 36080 ft 479 kts 68°
2026-05-07 20:34 47.67041 10.64100 36073 ft 479 kts 68°
2026-05-07 20:34 47.69447 10.73379 36069 ft 479 kts 68°
2026-05-07 20:35 47.71834 10.82641 36091 ft 479 kts 68°
2026-05-07 20:35 47.74221 10.91949 36096 ft 479 kts 68°
2026-05-07 20:36 47.76585 11.01201 36086 ft 479 kts 68°
2026-05-07 20:36 47.78947 11.10465 36078 ft 479 kts 68°
2026-05-07 20:37 47.81292 11.19730 36077 ft 479 kts 68°
2026-05-07 20:37 47.83628 11.29008 36079 ft 479 kts 68°
2026-05-07 20:38 47.86038 11.38242 36086 ft 478 kts 63°
2026-05-07 20:38 47.88958 11.47307 36098 ft 478 kts 63°
2026-05-07 20:39 47.91827 11.56248 36092 ft 477 kts 63°
2026-05-07 20:39 47.94662 11.65149 36093 ft 477 kts 63°
2026-05-07 20:40 47.97504 11.74110 36082 ft 477 kts 63°
2026-05-07 20:40 48.00379 11.83191 36083 ft 477 kts 63°
2026-05-07 20:41 48.03224 11.92235 36094 ft 477 kts 63°
2026-05-07 20:41 48.06039 12.01194 36089 ft 477 kts 64°
2026-05-07 20:42 48.08838 12.10129 36086 ft 476 kts 64°
2026-05-07 20:42 48.11673 12.19240 36085 ft 476 kts 64°
2026-05-07 20:43 48.14457 12.28227 36078 ft 476 kts 64°
2026-05-07 20:43 48.15852 12.32729 35814 ft 477 kts 64°
2026-05-07 20:43 48.17250 12.37246 35532 ft 476 kts 64°
2026-05-07 20:43 48.18643 12.41747 35263 ft 476 kts 64°
2026-05-07 20:44 48.20034 12.46252 35008 ft 476 kts 64°
2026-05-07 20:44 48.21434 12.50740 34753 ft 476 kts 61°
2026-05-07 20:44 48.23133 12.54980 34493 ft 473 kts 52°
2026-05-07 20:44 48.25227 12.58776 34237 ft 470 kts 42°
2026-05-07 20:45 48.27648 12.62040 33966 ft 467 kts 36°
2026-05-07 20:45 48.30156 12.65117 33662 ft 466 kts 36°
2026-05-07 20:45 48.32654 12.68215 33321 ft 464 kts 36°
2026-05-07 20:45 48.35121 12.71300 32965 ft 460 kts 37°
2026-05-07 20:46 48.37575 12.74381 32629 ft 456 kts 37°
2026-05-07 20:46 48.39215 12.76441 32397 ft 454 kts 37°
2026-05-07 20:46 48.41630 12.79469 32051 ft 450 kts 37°
2026-05-07 20:46 48.44024 12.82463 31722 ft 446 kts 37°
2026-05-07 20:47 48.46401 12.85433 31387 ft 442 kts 37°
2026-05-07 20:47 48.48761 12.88384 31065 ft 439 kts 37°
2026-05-07 20:47 48.51099 12.91307 30737 ft 435 kts 37°
2026-05-07 20:47 48.53435 12.94163 30416 ft 431 kts 33°
2026-05-07 20:48 48.55951 12.96566 30087 ft 425 kts 26°
2026-05-07 20:48 48.58515 12.98747 29734 ft 422 kts 26°
2026-05-07 20:48 48.61057 13.00921 29357 ft 419 kts 26°
2026-05-07 20:48 48.63587 13.03093 28989 ft 416 kts 26°
2026-05-07 20:49 48.66091 13.05252 28625 ft 414 kts 26°
2026-05-07 20:49 48.68593 13.07418 28259 ft 412 kts 26°
2026-05-07 20:49 48.71103 13.09590 27909 ft 410 kts 26°
2026-05-07 20:49 48.73573 13.11721 27557 ft 408 kts 26°
2026-05-07 20:50 48.76031 13.13836 27204 ft 405 kts 26°
2026-05-07 20:50 48.78472 13.15939 27040 ft 403 kts 26°
2026-05-07 20:50 48.80917 13.18054 27084 ft 403 kts 26°
2026-05-07 20:50 48.83343 13.20161 27080 ft 403 kts 26°
2026-05-07 20:51 48.85785 13.22285 27057 ft 403 kts 26°
2026-05-07 20:51 48.88235 13.24329 27061 ft 401 kts 21°
2026-05-07 20:51 48.88647 13.24622 27063 ft 400 kts 20°
2026-05-07 20:52 48.88860 13.24767 27061 ft 400 kts 20°
2026-05-07 20:52 48.91433 13.26416 27075 ft 399 kts 19°
2026-05-07 20:52 48.93978 13.28029 27069 ft 399 kts 19°
2026-05-07 20:53 48.96544 13.29649 27066 ft 399 kts 19°
2026-05-07 20:53 48.99108 13.31270 27068 ft 398 kts 19°
2026-05-07 20:53 49.01672 13.32892 27069 ft 405 kts 19°
2026-05-07 20:53 49.04317 13.34597 27067 ft 420 kts 22°
2026-05-07 20:54 49.06816 13.37128 27067 ft 433 kts 40°
2026-05-07 20:54 49.08769 13.40661 27068 ft 440 kts 51°
2026-05-07 20:54 49.10570 13.44444 27030 ft 441 kts 51°
2026-05-07 20:54 49.12359 13.48240 26760 ft 439 kts 51°
2026-05-07 20:55 49.14137 13.52029 26496 ft 438 kts 51°
2026-05-07 20:55 49.15907 13.55809 26248 ft 436 kts 51°
2026-05-07 20:55 49.17663 13.59554 26012 ft 434 kts 51°
2026-05-07 20:55 49.19423 13.63304 25752 ft 432 kts 51°
2026-05-07 20:56 49.21179 13.67042 25501 ft 431 kts 51°
2026-05-07 20:56 49.22922 13.70749 25252 ft 429 kts 51°
2026-05-07 20:56 49.24666 13.74466 25004 ft 428 kts 51°
2026-05-07 20:56 49.26391 13.78152 24757 ft 426 kts 51°
2026-05-07 20:57 49.28117 13.81838 24519 ft 425 kts 51°
2026-05-07 20:57 49.29833 13.85509 24277 ft 423 kts 51°
2026-05-07 20:57 49.31541 13.89175 24026 ft 422 kts 51°
2026-05-07 20:57 49.33233 13.92817 23711 ft 418 kts 52°
2026-05-07 20:58 49.34916 13.96440 23032 ft 415 kts 52°
2026-05-07 20:58 49.36587 14.00039 22358 ft 413 kts 52°
2026-05-07 20:58 49.38246 14.03616 21748 ft 410 kts 52°
2026-05-07 20:58 49.39888 14.07158 21135 ft 407 kts 52°
2026-05-07 20:59 49.41523 14.10692 20562 ft 404 kts 52°
2026-05-07 20:59 49.43141 14.14198 19998 ft 401 kts 52°
2026-05-07 20:59 49.44747 14.17683 19454 ft 398 kts 52°
2026-05-07 20:59 49.46365 14.21190 18912 ft 396 kts 52°
2026-05-07 21:00 49.47930 14.24587 18404 ft 393 kts 52°
2026-05-07 21:00 49.49524 14.28054 17830 ft 391 kts 53°
2026-05-07 21:00 49.51079 14.31451 17290 ft 388 kts 53°
2026-05-07 21:00 49.52630 14.34846 16766 ft 385 kts 53°
2026-05-07 21:01 49.54163 14.38204 16317 ft 381 kts 53°
2026-05-07 21:01 49.55679 14.41521 15846 ft 377 kts 53°
2026-05-07 21:01 49.57207 14.44869 15350 ft 375 kts 53°
2026-05-07 21:01 49.58695 14.48134 14861 ft 372 kts 53°
2026-05-07 21:02 49.60177 14.51393 14371 ft 370 kts 53°
2026-05-07 21:02 49.61655 14.54643 13847 ft 369 kts 53°
2026-05-07 21:02 49.63131 14.57889 13274 ft 368 kts 53°
2026-05-07 21:02 49.64614 14.61151 12769 ft 365 kts 53°
2026-05-07 21:03 49.66044 14.64303 12600 ft 352 kts 53°
2026-05-07 21:03 49.67424 14.67352 12386 ft 343 kts 53°
2026-05-07 21:03 49.68777 14.70348 12010 ft 339 kts 53°
2026-05-07 21:03 49.70115 14.73320 11602 ft 337 kts 53°
2026-05-07 21:04 49.71447 14.76277 11251 ft 332 kts 54°
2026-05-07 21:04 49.72792 14.79153 10883 ft 327 kts 49°
2026-05-07 21:04 49.74428 14.81611 10574 ft 320 kts 36°
2026-05-07 21:04 49.76168 14.83571 10450 ft 307 kts 28°
2026-05-07 21:05 49.78113 14.84677 10244 ft 294 kts
2026-05-07 21:05 49.80132 14.84526 9917 ft 285 kts 342°
2026-05-07 21:05 49.81874 14.83226 9666 ft 273 kts 320°
2026-05-07 21:05 49.83145 14.81175 9525 ft 258 kts 304°
2026-05-07 21:06 49.84232 14.78957 9016 ft 263 kts 305°
2026-05-07 21:06 49.85324 14.76742 8813 ft 254 kts 305°
2026-05-07 21:06 49.86391 14.74584 8511 ft 250 kts 305°
2026-05-07 21:06 49.87444 14.72448 8138 ft 247 kts 305°
2026-05-07 21:07 49.88471 14.70367 7946 ft 234 kts 305°
2026-05-07 21:07 49.89439 14.68401 7595 ft 230 kts 305°
2026-05-07 21:07 49.90409 14.66411 7187 ft 228 kts 306°
2026-05-07 21:07 49.91378 14.64422 6585 ft 235 kts 306°
2026-05-07 21:08 49.92372 14.62393 5960 ft 236 kts 306°
2026-05-07 21:08 49.93357 14.60384 5516 ft 229 kts 306°
2026-05-07 21:08 49.94295 14.58469 5328 ft 219 kts 306°
2026-05-07 21:08 49.94977 14.57077 5180 ft 216 kts 306°
2026-05-07 21:09 49.95843 14.55306 4979 ft 212 kts 306°
2026-05-07 21:09 49.96720 14.53512 4852 ft 205 kts 306°
2026-05-07 21:09 49.97566 14.51780 4720 ft 198 kts 306°
2026-05-07 21:09 49.98392 14.50089 4615 ft 191 kts 306°
2026-05-07 21:10 49.99201 14.48430 4489 ft 184 kts 306°
2026-05-07 21:10 49.99960 14.46873 4259 ft 178 kts 307°
2026-05-07 21:10 50.00695 14.45366 4020 ft 172 kts 307°
2026-05-07 21:10 50.01410 14.43897 3790 ft 167 kts 308°
2026-05-07 21:11 50.02107 14.42466 3572 ft 159 kts 308°
2026-05-07 21:11 50.02748 14.41147 3396 ft 147 kts 308°
2026-05-07 21:11 50.03907 14.38763 3010 ft 132 kts 309°
2026-05-07 21:12 50.04450 14.37646 2839 ft 129 kts 309°
2026-05-07 21:12 50.04999 14.36515 2655 ft 128 kts 309°
2026-05-07 21:12 50.05526 14.35431 2485 ft 128 kts 308°
2026-05-07 21:12 50.06075 14.34300 2311 ft 128 kts 308°
2026-05-07 21:13 50.06610 14.33198 2119 ft 127 kts 309°
2026-05-07 21:13 50.07143 14.32095 1907 ft 128 kts 309°
2026-05-07 21:13 50.07715 14.30913 1722 ft 128 kts 310°
2026-05-07 21:13 50.08239 14.29835 1542 ft 129 kts 310°
2026-05-07 21:14 50.08778 14.28719 1377 ft 130 kts 310°
2026-05-07 21:14 50.09330 14.27577 1222 ft 129 kts 309°
2026-05-07 21:14 50.09791 14.26625 1207 ft 89 kts 306°
2026-05-07 21:14 50.10064 14.26063 1191 ft 39 kts 307°
2026-05-07 21:15 50.10205 14.25774 1187 ft 30 kts 311°
2026-05-07 21:15 50.10321 14.25673 1186 ft 10 kts 343°
2026-05-07 21:15 50.10407 14.25655 1184 ft 14 kts
2026-05-07 21:15 50.10513 14.25697 1178 ft 16 kts 25°
2026-05-07 21:16 50.10564 14.25748 1173 ft 7 kts 35°
2026-05-07 21:16 50.10606 14.25794 1172 ft 9 kts 35°
2026-05-07 21:16 50.10661 14.25854 1171 ft 11 kts 35°
2026-05-07 21:16 50.10696 14.25892 1173 ft 0 kts 33°
2026-05-07 21:17 50.10699 14.25894 1173 ft 0 kts 33°
2026-05-07 21:17 50.10716 14.25910 1172 ft 7 kts 30°
2026-05-07 21:17 50.10757 14.25952 1171 ft 3 kts 34°
2026-05-07 21:17 50.10770 14.25965 1169 ft 2 kts 34°
2026-05-07 21:18 50.10780 14.25977 1170 ft 2 kts 39°
2026-05-07 21:18 50.10780 14.25997 1172 ft 1 kts 100°
2026-05-07 21:18 50.10778 14.26003 1173 ft 0 kts 109°
2026-05-07 21:18 50.10767 14.26033 1172 ft 3 kts 124°
2026-05-07 21:19 50.10759 14.26051 1171 ft 2 kts 123°
2026-05-07 21:19 50.10754 14.26063 1171 ft 1 kts 124°
2026-05-07 21:19 50.10750 14.26071 1173 ft 1 kts 124°
2026-05-07 21:19 50.10748 14.26077 1171 ft 1 kts 124°
2026-05-07 21:20 50.10747 14.26079 1171 ft 0 kts 124°